Year,Month,Day,Hour,Minute,Value (Times are PST for temperature in C)
2009,09,28,00,00,6.40
2009,09,28,00,01,6.30
2009,09,28,00,02,6.30
2009,09,28,00,03,6.30
2009,09,28,00,04,6.30
2009,09,28,00,05,6.20
2009,09,28,00,06,6.20
2009,09,28,00,07,6.20
2009,09,28,00,08,6.10
2009,09,28,00,09,6.10
2009,09,28,00,10,6.10
2009,09,28,00,11,6.10
2009,09,28,00,12,6.20
2009,09,28,00,18,6.20
2009,09,28,00,19,6.10
2009,09,28,00,20,6.10
2009,09,28,00,21,6.10
2009,09,28,00,22,6.10
2009,09,28,00,23,6.10
2009,09,28,00,24,6.10
2009,09,28,00,25,6.00
2009,09,28,00,26,6.00
2009,09,28,00,27,6.00
2009,09,28,00,28,5.90
2009,09,28,00,29,5.90
2009,09,28,00,30,5.90
2009,09,28,00,31,5.90
2009,09,28,00,32,5.90
2009,09,28,00,33,5.90
2009,09,28,00,34,5.90
2009,09,28,00,35,5.90
2009,09,28,00,36,5.90
2009,09,28,00,37,5.80
2009,09,28,00,38,5.80
2009,09,28,00,39,5.80
2009,09,28,00,40,5.80
2009,09,28,00,41,5.80
2009,09,28,00,42,5.80
2009,09,28,00,43,5.80
2009,09,28,00,44,5.80
2009,09,28,00,45,5.80
2009,09,28,00,46,5.80
2009,09,28,00,47,5.70
2009,09,28,00,48,5.70
2009,09,28,00,49,5.70
2009,09,28,00,50,5.70
2009,09,28,00,51,5.70
2009,09,28,00,52,5.60
2009,09,28,00,53,5.60
2009,09,28,00,54,5.60
2009,09,28,00,55,5.60
2009,09,28,00,56,5.60
2009,09,28,00,57,5.60
2009,09,28,00,58,5.60
2009,09,28,00,59,5.60
2009,09,28,01,00,5.60
2009,09,28,01,01,5.60
2009,09,28,01,02,5.60
2009,09,28,01,03,5.60
2009,09,28,01,04,5.60
2009,09,28,01,05,5.50
2009,09,28,01,06,5.50
2009,09,28,01,07,5.50
2009,09,28,01,08,5.50
2009,09,28,01,09,5.50
2009,09,28,01,10,5.50
2009,09,28,01,11,5.50
2009,09,28,01,12,5.50
2009,09,28,01,13,5.50
2009,09,28,01,14,5.50
2009,09,28,01,15,5.50
2009,09,28,01,16,5.50
2009,09,28,01,17,5.40
2009,09,28,01,18,5.40
2009,09,28,01,19,5.40
2009,09,28,01,20,5.40
2009,09,28,01,21,5.40
2009,09,28,01,22,5.40
2009,09,28,01,23,5.40
2009,09,28,01,24,5.40
2009,09,28,01,25,5.40
2009,09,28,01,26,5.50
2009,09,28,01,27,5.50
2009,09,28,01,28,5.60
2009,09,28,01,29,5.60
2009,09,28,01,30,5.60
2009,09,28,01,31,5.60
2009,09,28,01,32,5.50
2009,09,28,01,33,5.50
2009,09,28,01,34,5.50
2009,09,28,01,35,5.50
2009,09,28,01,36,5.50
2009,09,28,01,37,5.40
2009,09,28,01,38,5.40
2009,09,28,01,39,5.40
2009,09,28,01,40,5.40
2009,09,28,01,41,5.40
2009,09,28,01,42,5.40
2009,09,28,01,43,5.40
2009,09,28,01,44,5.30
2009,09,28,01,45,5.30
2009,09,28,01,46,5.30
2009,09,28,01,47,5.30
2009,09,28,01,48,5.30
2009,09,28,01,49,5.30
2009,09,28,01,50,5.30
2009,09,28,01,51,5.30
2009,09,28,01,52,5.30
2009,09,28,01,53,5.30
2009,09,28,01,54,5.30
2009,09,28,01,55,5.30
2009,09,28,01,56,5.30
2009,09,28,01,57,5.30
2009,09,28,01,58,5.30
2009,09,28,01,59,5.30
2009,09,28,02,00,5.20
2009,09,28,02,01,5.20
2009,09,28,02,02,5.20
2009,09,28,02,03,5.20
2009,09,28,02,04,5.20
2009,09,28,02,05,5.20
2009,09,28,02,06,5.20
2009,09,28,02,07,5.20
2009,09,28,02,08,5.20
2009,09,28,02,09,5.20
2009,09,28,02,10,5.20
2009,09,28,02,11,5.20
2009,09,28,02,12,5.20
2009,09,28,02,13,5.20
2009,09,28,02,14,5.10
2009,09,28,02,15,5.10
2009,09,28,02,16,5.10
2009,09,28,02,17,5.10
2009,09,28,02,18,5.10
2009,09,28,02,19,5.10
2009,09,28,02,20,5.10
2009,09,28,02,21,5.10
2009,09,28,02,22,5.10
2009,09,28,02,23,5.10
2009,09,28,02,24,5.10
2009,09,28,02,25,5.10
2009,09,28,02,26,5.00
2009,09,28,02,27,5.00
2009,09,28,02,28,5.00
2009,09,28,02,29,5.00
2009,09,28,02,30,4.90
2009,09,28,02,31,4.90
2009,09,28,02,32,4.90
2009,09,28,02,33,4.90
2009,09,28,02,34,4.90
2009,09,28,02,35,4.90
2009,09,28,02,36,4.90
2009,09,28,02,37,4.90
2009,09,28,02,38,4.90
2009,09,28,02,39,4.90
2009,09,28,02,40,4.80
2009,09,28,02,41,4.80
2009,09,28,02,42,4.80
2009,09,28,02,43,4.80
2009,09,28,02,44,4.80
2009,09,28,02,45,4.80
2009,09,28,02,46,4.80
2009,09,28,02,47,4.80
2009,09,28,02,48,4.80
2009,09,28,02,49,4.80
2009,09,28,02,50,4.80
2009,09,28,02,51,4.80
2009,09,28,02,52,4.80
2009,09,28,02,53,4.80
2009,09,28,02,54,4.80
2009,09,28,02,55,4.80
2009,09,28,02,56,4.70
2009,09,28,02,57,4.70
2009,09,28,02,58,4.70
2009,09,28,02,59,4.70
2009,09,28,03,00,4.70
2009,09,28,03,01,4.70
2009,09,28,03,02,4.70
2009,09,28,03,03,4.70
2009,09,28,03,04,4.80
2009,09,28,03,05,4.80
2009,09,28,03,06,4.80
2009,09,28,03,07,4.80
2009,09,28,03,08,4.80
2009,09,28,03,09,4.80
2009,09,28,03,10,4.80
2009,09,28,03,11,4.80
2009,09,28,03,12,4.80
2009,09,28,03,13,4.70
2009,09,28,03,14,4.70
2009,09,28,03,15,4.70
2009,09,28,03,16,4.70
2009,09,28,03,17,4.70
2009,09,28,03,18,4.70
2009,09,28,03,19,4.70
2009,09,28,03,20,4.70
2009,09,28,03,21,4.70
2009,09,28,03,22,4.60
2009,09,28,03,23,4.60
2009,09,28,03,24,4.60
2009,09,28,03,25,4.60
2009,09,28,03,26,4.60
2009,09,28,03,27,4.60
2009,09,28,03,28,4.60
2009,09,28,03,29,4.60
2009,09,28,03,30,4.60
2009,09,28,03,31,4.60
2009,09,28,03,32,4.60
2009,09,28,03,33,4.60
2009,09,28,03,34,4.60
2009,09,28,03,35,4.50
2009,09,28,03,36,4.50
2009,09,28,03,37,4.50
2009,09,28,03,38,4.50
2009,09,28,03,39,4.50
2009,09,28,03,40,4.50
2009,09,28,03,41,4.50
2009,09,28,03,42,4.50
2009,09,28,03,43,4.50
2009,09,28,03,44,4.50
2009,09,28,03,45,4.40
2009,09,28,03,46,4.40
2009,09,28,03,47,4.40
2009,09,28,03,48,4.50
2009,09,28,03,49,4.50
2009,09,28,03,50,4.50
2009,09,28,03,51,4.60
2009,09,28,03,52,4.60
2009,09,28,03,53,4.60
2009,09,28,03,54,4.70
2009,09,28,03,55,4.70
2009,09,28,03,56,4.70
2009,09,28,03,57,4.80
2009,09,28,03,58,4.90
2009,09,28,03,59,4.90
2009,09,28,04,00,4.90
2009,09,28,04,01,5.00
2009,09,28,04,02,5.00
2009,09,28,04,03,5.10
2009,09,28,04,04,5.10
2009,09,28,04,05,5.30
2009,09,28,04,06,5.40
2009,09,28,04,07,5.50
2009,09,28,04,08,5.60
2009,09,28,04,09,5.70
2009,09,28,04,10,5.80
2009,09,28,04,11,5.80
2009,09,28,04,12,5.80
2009,09,28,04,13,5.80
2009,09,28,04,14,5.80
2009,09,28,04,15,5.90
2009,09,28,04,16,5.90
2009,09,28,04,17,5.90
2009,09,28,04,18,5.80
2009,09,28,04,19,5.80
2009,09,28,04,20,5.70
2009,09,28,04,21,5.70
2009,09,28,04,22,5.70
2009,09,28,04,23,5.60
2009,09,28,04,24,5.60
2009,09,28,04,25,5.50
2009,09,28,04,26,5.50
2009,09,28,04,27,5.40
2009,09,28,04,28,5.30
2009,09,28,04,29,5.30
2009,09,28,04,30,5.30
2009,09,28,04,31,5.20
2009,09,28,04,32,5.10
2009,09,28,04,33,5.10
2009,09,28,04,34,5.10
2009,09,28,04,35,5.00
2009,09,28,04,36,5.00
2009,09,28,04,37,4.90
2009,09,28,04,38,4.80
2009,09,28,04,39,4.80
2009,09,28,04,40,4.80
2009,09,28,04,41,4.80
2009,09,28,04,42,4.80
2009,09,28,04,43,4.90
2009,09,28,04,44,4.90
2009,09,28,04,45,4.90
2009,09,28,04,46,4.90
2009,09,28,04,47,4.90
2009,09,28,04,48,4.80
2009,09,28,04,49,4.80
2009,09,28,04,50,4.80
2009,09,28,04,51,4.80
2009,09,28,04,52,4.80
2009,09,28,04,53,4.80
2009,09,28,04,54,4.80
2009,09,28,04,55,4.70
2009,09,28,04,56,4.70
2009,09,28,04,57,4.70
2009,09,28,04,58,4.70
2009,09,28,04,59,4.60
2009,09,28,05,00,4.60
2009,09,28,05,01,4.60
2009,09,28,05,02,4.60
2009,09,28,05,03,4.60
2009,09,28,05,04,4.60
2009,09,28,05,05,4.50
2009,09,28,05,06,4.50
2009,09,28,05,07,4.50
2009,09,28,05,08,4.50
2009,09,28,05,09,4.40
2009,09,28,05,10,4.40
2009,09,28,05,11,4.40
2009,09,28,05,12,4.40
2009,09,28,05,13,4.40
2009,09,28,05,14,4.40
2009,09,28,05,15,4.40
2009,09,28,05,16,4.40
2009,09,28,05,17,4.40
2009,09,28,05,18,4.40
2009,09,28,05,19,4.40
2009,09,28,05,20,4.40
2009,09,28,05,21,4.50
2009,09,28,05,22,4.50
2009,09,28,05,23,4.60
2009,09,28,05,24,4.60
2009,09,28,05,25,4.70
2009,09,28,05,26,4.70
2009,09,28,05,27,4.80
2009,09,28,05,28,4.80
2009,09,28,05,29,4.80
2009,09,28,05,30,4.80
2009,09,28,05,31,4.80
2009,09,28,05,32,4.80
2009,09,28,05,33,4.80
2009,09,28,05,34,4.80
2009,09,28,05,35,4.80
2009,09,28,05,36,4.70
2009,09,28,05,37,4.70
2009,09,28,05,38,4.70
2009,09,28,05,39,4.60
2009,09,28,05,40,4.60
2009,09,28,05,41,4.60
2009,09,28,05,42,4.60
2009,09,28,05,43,4.60
2009,09,28,05,44,4.60
2009,09,28,05,45,4.60
2009,09,28,05,46,4.60
2009,09,28,05,47,4.60
2009,09,28,05,48,4.60
2009,09,28,05,49,4.60
2009,09,28,05,50,4.60
2009,09,28,05,51,4.60
2009,09,28,05,52,4.50
2009,09,28,05,53,4.50
2009,09,28,05,54,4.50
2009,09,28,05,55,4.40
2009,09,28,05,56,4.40
2009,09,28,05,57,4.40
2009,09,28,05,58,4.40
2009,09,28,05,59,4.40
2009,09,28,06,00,4.40
2009,09,28,06,01,4.40
2009,09,28,06,02,4.50
2009,09,28,06,03,4.50
2009,09,28,06,04,4.60
2009,09,28,06,05,4.70
2009,09,28,06,06,4.70
2009,09,28,06,07,4.70
2009,09,28,06,08,4.70
2009,09,28,06,09,4.70
2009,09,28,06,10,4.70
2009,09,28,06,11,4.70
2009,09,28,06,12,4.70
2009,09,28,06,13,4.60
2009,09,28,06,14,4.60
2009,09,28,06,15,4.60
2009,09,28,06,16,4.50
2009,09,28,06,17,4.50
2009,09,28,06,18,4.40
2009,09,28,06,19,4.40
2009,09,28,06,20,4.40
2009,09,28,06,21,4.40
2009,09,28,06,22,4.40
2009,09,28,06,23,4.40
2009,09,28,06,24,4.40
2009,09,28,06,25,4.40
2009,09,28,06,26,4.40
2009,09,28,06,27,4.40
2009,09,28,06,28,4.40
2009,09,28,06,29,4.40
2009,09,28,06,30,4.40
2009,09,28,06,31,4.40
2009,09,28,06,32,4.40
2009,09,28,06,33,4.40
2009,09,28,06,34,4.40
2009,09,28,06,35,4.40
2009,09,28,06,36,4.40
2009,09,28,06,37,4.40
2009,09,28,06,38,4.40
2009,09,28,06,39,4.40
2009,09,28,06,40,4.40
2009,09,28,06,41,4.30
2009,09,28,06,42,4.30
2009,09,28,06,43,4.30
2009,09,28,06,44,4.30
2009,09,28,06,45,4.30
2009,09,28,06,46,4.20
2009,09,28,06,47,4.20
2009,09,28,06,48,4.20
2009,09,28,06,49,4.20
2009,09,28,06,50,4.20
2009,09,28,06,51,4.20
2009,09,28,06,52,4.20
2009,09,28,06,53,4.20
2009,09,28,06,54,4.20
2009,09,28,06,55,4.20
2009,09,28,06,56,4.20
2009,09,28,06,57,4.20
2009,09,28,06,58,4.20
2009,09,28,06,59,4.20
2009,09,28,07,00,4.10
2009,09,28,07,01,4.10
2009,09,28,07,02,4.10
2009,09,28,07,03,4.20
2009,09,28,07,04,4.20
2009,09,28,07,05,4.30
2009,09,28,07,06,4.30
2009,09,28,07,07,4.40
2009,09,28,07,08,4.40
2009,09,28,07,09,4.40
2009,09,28,07,10,4.40
2009,09,28,07,11,4.30
2009,09,28,07,12,4.30
2009,09,28,07,13,4.30
2009,09,28,07,14,4.20
2009,09,28,07,15,4.20
2009,09,28,07,16,4.20
2009,09,28,07,17,4.20
2009,09,28,07,18,4.20
2009,09,28,07,19,4.20
2009,09,28,07,20,4.20
2009,09,28,07,21,4.10
2009,09,28,07,22,4.10
2009,09,28,07,23,4.10
2009,09,28,07,24,4.10
2009,09,28,07,25,4.00
2009,09,28,07,26,4.00
2009,09,28,07,27,3.90
2009,09,28,07,28,3.90
2009,09,28,07,29,3.90
2009,09,28,07,30,3.90
2009,09,28,07,31,3.90
2009,09,28,07,32,3.90
2009,09,28,07,33,3.90
2009,09,28,07,34,3.90
2009,09,28,07,35,3.90
2009,09,28,07,36,3.90
2009,09,28,07,37,3.90
2009,09,28,07,38,3.90
2009,09,28,07,39,3.90
2009,09,28,07,40,3.90
2009,09,28,07,41,3.80
2009,09,28,07,42,3.80
2009,09,28,07,43,3.80
2009,09,28,07,44,3.80
2009,09,28,07,45,3.80
2009,09,28,07,46,3.80
2009,09,28,07,47,3.80
2009,09,28,07,48,3.80
2009,09,28,07,49,3.80
2009,09,28,07,50,3.80
2009,09,28,07,51,3.80
2009,09,28,07,52,3.80
2009,09,28,07,53,3.80
2009,09,28,07,54,3.80
2009,09,28,07,55,3.80
2009,09,28,07,56,3.80
2009,09,28,07,57,3.80
2009,09,28,07,58,3.90
2009,09,28,07,59,3.90
2009,09,28,08,00,3.90
2009,09,28,08,01,3.90
2009,09,28,08,02,4.00
2009,09,28,08,03,4.00
2009,09,28,08,04,4.10
2009,09,28,08,05,4.10
2009,09,28,08,06,4.10
2009,09,28,08,07,4.10
2009,09,28,08,08,4.10
2009,09,28,08,09,4.10
2009,09,28,08,10,4.10
2009,09,28,08,11,4.20
2009,09,28,08,12,4.20
2009,09,28,08,13,4.20
2009,09,28,08,14,4.20
2009,09,28,08,15,4.30
2009,09,28,08,16,4.30
2009,09,28,08,17,4.30
2009,09,28,08,18,4.30
2009,09,28,08,19,4.40
2009,09,28,08,20,4.40
2009,09,28,08,21,4.50
2009,09,28,08,22,4.60
2009,09,28,08,23,4.70
2009,09,28,08,24,4.80
2009,09,28,08,25,4.90
2009,09,28,08,26,5.10
2009,09,28,08,27,5.20
2009,09,28,08,28,5.30
2009,09,28,08,29,5.30
2009,09,28,08,30,5.40
2009,09,28,08,31,5.40
2009,09,28,08,32,5.50
2009,09,28,08,33,5.60
2009,09,28,08,34,5.70
2009,09,28,08,35,5.70
2009,09,28,08,36,5.70
2009,09,28,08,37,5.70
2009,09,28,08,38,5.80
2009,09,28,08,39,5.80
2009,09,28,08,40,5.80
2009,09,28,08,41,5.90
2009,09,28,08,42,5.90
2009,09,28,08,43,6.00
2009,09,28,08,44,6.00
2009,09,28,08,45,6.10
2009,09,28,08,46,6.10
2009,09,28,08,47,6.10
2009,09,28,08,48,6.20
2009,09,28,08,49,6.20
2009,09,28,08,50,6.40
2009,09,28,08,51,6.50
2009,09,28,08,52,6.70
2009,09,28,08,53,6.80
2009,09,28,08,54,7.20
2009,09,28,08,55,7.60
2009,09,28,08,56,8.00
2009,09,28,08,57,8.50
2009,09,28,08,58,8.80
2009,09,28,08,59,9.00
2009,09,28,09,00,9.20
2009,09,28,09,01,9.40
2009,09,28,09,02,9.60
2009,09,28,09,03,9.80
2009,09,28,09,04,10.00
2009,09,28,09,05,10.40
2009,09,28,09,06,10.70
2009,09,28,09,07,10.80
2009,09,28,09,08,11.00
2009,09,28,09,09,11.10
2009,09,28,09,10,11.10
2009,09,28,09,11,11.20
2009,09,28,09,12,11.30
2009,09,28,09,13,11.50
2009,09,28,09,14,11.60
2009,09,28,09,15,11.70
2009,09,28,09,16,11.90
2009,09,28,09,17,12.10
2009,09,28,09,18,12.30
2009,09,28,09,19,12.40
2009,09,28,09,20,12.60
2009,09,28,09,21,12.70
2009,09,28,09,22,12.80
2009,09,28,09,23,12.90
2009,09,28,09,24,13.10
2009,09,28,09,25,13.20
2009,09,28,09,26,13.30
2009,09,28,09,27,13.30
2009,09,28,09,28,13.40
2009,09,28,09,29,13.40
2009,09,28,09,30,13.40
2009,09,28,09,31,13.40
2009,09,28,09,32,13.40
2009,09,28,09,33,13.30
2009,09,28,09,34,13.30
2009,09,28,09,35,13.30
2009,09,28,09,36,13.30
2009,09,28,09,37,13.30
2009,09,28,09,38,13.30
2009,09,28,09,39,13.30
2009,09,28,09,40,13.30
2009,09,28,09,41,13.40
2009,09,28,09,42,13.40
2009,09,28,09,43,13.50
2009,09,28,09,44,13.50
2009,09,28,09,45,13.60
2009,09,28,09,46,13.60
2009,09,28,09,47,13.60
2009,09,28,09,48,13.70
2009,09,28,09,49,13.70
2009,09,28,09,50,13.70
2009,09,28,09,51,13.80
2009,09,28,09,52,13.80
2009,09,28,09,53,13.90
2009,09,28,09,54,13.90
2009,09,28,09,55,14.00
2009,09,28,09,56,14.00
2009,09,28,09,57,14.10
2009,09,28,09,58,14.20
2009,09,28,09,59,14.20
2009,09,28,10,00,14.30
2009,09,28,10,01,14.30
2009,09,28,10,02,14.30
2009,09,28,10,03,14.40
2009,09,28,10,04,14.40
2009,09,28,10,05,14.40
2009,09,28,10,06,14.40
2009,09,28,10,07,14.40
2009,09,28,10,08,14.40
2009,09,28,10,09,14.40
2009,09,28,10,10,14.40
2009,09,28,10,11,14.40
2009,09,28,10,12,14.40
2009,09,28,10,13,14.40
2009,09,28,10,14,14.30
2009,09,28,10,15,14.30
2009,09,28,10,16,14.30
2009,09,28,10,17,14.30
2009,09,28,10,18,14.30
2009,09,28,10,19,14.30
2009,09,28,10,20,14.30
2009,09,28,10,21,14.20
2009,09,28,10,22,14.20
2009,09,28,10,23,14.30
2009,09,28,10,24,14.30
2009,09,28,10,25,14.30
2009,09,28,10,26,14.30
2009,09,28,10,27,14.30
2009,09,28,10,28,14.20
2009,09,28,10,29,14.20
2009,09,28,10,30,14.20
2009,09,28,10,31,14.20
2009,09,28,10,32,14.20
2009,09,28,10,33,14.20
2009,09,28,10,34,14.10
2009,09,28,10,35,14.10
2009,09,28,10,36,14.10
2009,09,28,10,37,14.10
2009,09,28,10,38,14.10
2009,09,28,10,39,14.10
2009,09,28,10,40,14.10
2009,09,28,10,41,14.20
2009,09,28,10,42,14.20
2009,09,28,10,43,14.30
2009,09,28,10,44,14.40
2009,09,28,10,45,14.50
2009,09,28,10,46,14.50
2009,09,28,10,47,14.40
2009,09,28,10,48,14.40
2009,09,28,10,49,14.50
2009,09,28,10,50,14.50
2009,09,28,10,51,14.50
2009,09,28,10,52,14.50
2009,09,28,10,53,14.50
2009,09,28,10,54,14.50
2009,09,28,10,55,14.40
2009,09,28,10,56,14.40
2009,09,28,10,57,14.40
2009,09,28,10,58,14.30
2009,09,28,10,59,14.30
2009,09,28,11,00,14.30
2009,09,28,11,01,14.20
2009,09,28,11,02,14.10
2009,09,28,11,03,14.10
2009,09,28,11,04,14.10
2009,09,28,11,05,14.10
2009,09,28,11,06,14.10
2009,09,28,11,07,14.10
2009,09,28,11,08,14.10
2009,09,28,11,09,14.00
2009,09,28,11,10,14.00
2009,09,28,11,11,14.00
2009,09,28,11,12,14.00
2009,09,28,11,13,14.00
2009,09,28,11,14,14.00
2009,09,28,11,15,14.00
2009,09,28,11,16,13.90
2009,09,28,11,17,13.90
2009,09,28,11,18,13.80
2009,09,28,11,19,13.90
2009,09,28,11,20,13.90
2009,09,28,11,21,13.80
2009,09,28,11,22,13.80
2009,09,28,11,23,13.80
2009,09,28,11,24,13.80
2009,09,28,11,25,13.80
2009,09,28,11,26,13.80
2009,09,28,11,27,13.70
2009,09,28,11,28,13.70
2009,09,28,11,29,13.70
2009,09,28,11,30,13.70
2009,09,28,11,31,13.70
2009,09,28,11,32,13.70
2009,09,28,11,33,13.70
2009,09,28,11,34,13.70
2009,09,28,11,35,13.70
2009,09,28,11,36,13.70
2009,09,28,11,37,13.70
2009,09,28,11,38,13.70
2009,09,28,11,39,13.70
2009,09,28,11,40,13.70
2009,09,28,11,41,13.70
2009,09,28,11,42,13.80
2009,09,28,11,43,13.80
2009,09,28,11,44,13.80
2009,09,28,11,45,13.80
2009,09,28,11,46,13.80
2009,09,28,11,47,13.90
2009,09,28,11,48,13.90
2009,09,28,11,49,13.90
2009,09,28,11,50,13.90
2009,09,28,11,51,13.90
2009,09,28,11,52,13.90
2009,09,28,11,53,14.00
2009,09,28,11,54,14.00
2009,09,28,11,55,14.00
2009,09,28,11,56,14.00
2009,09,28,11,57,14.00
2009,09,28,11,58,14.10
2009,09,28,11,59,14.10
2009,09,28,12,00,14.10
2009,09,28,12,01,14.10
2009,09,28,12,02,14.20
2009,09,28,12,03,14.20
2009,09,28,12,04,14.20
2009,09,28,12,05,14.20
2009,09,28,12,06,14.20
2009,09,28,12,07,14.20
2009,09,28,12,08,14.20
2009,09,28,12,09,14.30
2009,09,28,12,10,14.30
2009,09,28,12,11,14.30
2009,09,28,12,12,14.30
2009,09,28,12,13,14.30
2009,09,28,12,14,14.30
2009,09,28,12,15,14.30
2009,09,28,12,16,14.30
2009,09,28,12,17,14.30
2009,09,28,12,18,14.30
2009,09,28,12,19,14.30
2009,09,28,12,20,14.40
2009,09,28,12,21,14.40
2009,09,28,12,22,14.40
2009,09,28,12,23,14.40
2009,09,28,12,24,14.40
2009,09,28,12,25,14.40
2009,09,28,12,26,14.50
2009,09,28,12,27,14.50
2009,09,28,12,28,14.50
2009,09,28,12,29,14.60
2009,09,28,12,30,14.60
2009,09,28,12,31,14.60
2009,09,28,12,32,14.70
2009,09,28,12,33,14.70
2009,09,28,12,34,14.70
2009,09,28,12,35,14.70
2009,09,28,12,36,14.70
2009,09,28,12,37,14.70
2009,09,28,12,38,14.70
2009,09,28,12,39,14.70
2009,09,28,12,40,14.70
2009,09,28,12,41,14.70
2009,09,28,12,42,14.80
2009,09,28,12,43,14.70
2009,09,28,12,44,14.70
2009,09,28,12,45,14.70
2009,09,28,12,46,14.70
2009,09,28,12,47,14.80
2009,09,28,12,48,14.80
2009,09,28,12,49,14.80
2009,09,28,12,50,14.80
2009,09,28,12,51,14.80
2009,09,28,12,52,14.80
2009,09,28,12,53,14.80
2009,09,28,12,54,14.80
2009,09,28,12,55,14.80
2009,09,28,12,56,14.80
2009,09,28,12,57,14.80
2009,09,28,12,58,14.80
2009,09,28,12,59,14.80
2009,09,28,13,00,14.80
2009,09,28,13,01,14.70
2009,09,28,13,02,14.70
2009,09,28,13,03,14.70
2009,09,28,13,04,14.70
2009,09,28,13,05,14.70
2009,09,28,13,06,14.70
2009,09,28,13,07,14.70
2009,09,28,13,08,14.70
2009,09,28,13,09,14.70
2009,09,28,13,10,14.70
2009,09,28,13,11,14.70
2009,09,28,13,12,14.70
2009,09,28,13,13,14.70
2009,09,28,13,14,14.70
2009,09,28,13,15,14.70
2009,09,28,13,16,14.70
2009,09,28,13,17,14.80
2009,09,28,13,18,14.80
2009,09,28,13,19,14.80
2009,09,28,13,20,14.80
2009,09,28,13,21,14.80
2009,09,28,13,22,14.90
2009,09,28,13,23,15.00
2009,09,28,13,24,15.00
2009,09,28,13,25,15.00
2009,09,28,13,26,15.00
2009,09,28,13,27,15.00
2009,09,28,13,28,15.00
2009,09,28,13,29,15.10
2009,09,28,13,30,15.20
2009,09,28,13,31,15.30
2009,09,28,13,32,15.30
2009,09,28,13,33,15.40
2009,09,28,13,34,15.50
2009,09,28,13,35,15.50
2009,09,28,13,36,15.60
2009,09,28,13,37,15.70
2009,09,28,13,38,15.80
2009,09,28,13,39,15.80
2009,09,28,13,40,15.80
2009,09,28,13,41,15.90
2009,09,28,13,42,15.90
2009,09,28,13,43,15.80
2009,09,28,13,44,15.80
2009,09,28,13,45,15.90
2009,09,28,13,46,15.90
2009,09,28,13,47,15.80
2009,09,28,13,48,15.80
2009,09,28,13,49,15.70
2009,09,28,13,50,15.70
2009,09,28,13,51,15.60
2009,09,28,13,52,15.60
2009,09,28,13,53,15.60
2009,09,28,13,54,15.60
2009,09,28,13,55,15.60
2009,09,28,13,56,15.60
2009,09,28,13,57,15.50
2009,09,28,13,58,15.40
2009,09,28,13,59,15.40
2009,09,28,14,00,15.40
2009,09,28,14,01,15.30
2009,09,28,14,02,15.10
2009,09,28,14,03,14.90
2009,09,28,14,04,14.60
2009,09,28,14,05,14.30
2009,09,28,14,06,14.00
2009,09,28,14,07,13.80
2009,09,28,14,08,13.60
2009,09,28,14,09,13.40
2009,09,28,14,10,13.30
2009,09,28,14,11,13.20
2009,09,28,14,12,13.20
2009,09,28,14,13,13.10
2009,09,28,14,14,13.00
2009,09,28,14,15,13.00
2009,09,28,14,16,12.90
2009,09,28,14,17,12.80
2009,09,28,14,18,12.80
2009,09,28,14,19,12.80
2009,09,28,14,20,12.70
2009,09,28,14,21,12.70
2009,09,28,14,22,12.70
2009,09,28,14,23,12.80
2009,09,28,14,24,12.70
2009,09,28,14,25,12.70
2009,09,28,14,26,12.70
2009,09,28,14,27,12.70
2009,09,28,14,28,12.70
2009,09,28,14,29,12.70
2009,09,28,14,30,12.70
2009,09,28,14,31,12.70
2009,09,28,14,32,12.80
2009,09,28,14,33,12.80
2009,09,28,14,34,12.80
2009,09,28,14,35,12.80
2009,09,28,14,36,12.90
2009,09,28,14,37,12.90
2009,09,28,14,38,13.00
2009,09,28,14,39,13.00
2009,09,28,14,40,13.10
2009,09,28,14,41,13.10
2009,09,28,14,42,13.20
2009,09,28,14,43,13.20
2009,09,28,14,44,13.20
2009,09,28,14,45,13.30
2009,09,28,14,46,13.30
2009,09,28,14,47,13.30
2009,09,28,14,48,13.30
2009,09,28,14,49,13.40
2009,09,28,14,50,13.50
2009,09,28,14,51,13.50
2009,09,28,14,52,13.60
2009,09,28,14,53,13.50
2009,09,28,14,54,13.50
2009,09,28,14,55,13.40
2009,09,28,14,56,13.40
2009,09,28,14,57,13.30
2009,09,28,14,58,13.30
2009,09,28,14,59,13.20
2009,09,28,15,00,13.10
2009,09,28,15,01,13.00
2009,09,28,15,02,13.00
2009,09,28,15,03,13.00
2009,09,28,15,04,13.00
2009,09,28,15,05,13.10
2009,09,28,15,06,13.10
2009,09,28,15,07,13.00
2009,09,28,15,08,13.00
2009,09,28,15,09,13.00
2009,09,28,15,10,13.00
2009,09,28,15,11,12.90
2009,09,28,15,12,12.90
2009,09,28,15,13,12.90
2009,09,28,15,14,12.90
2009,09,28,15,15,12.90
2009,09,28,15,16,12.90
2009,09,28,15,17,12.80
2009,09,28,15,18,12.80
2009,09,28,15,19,12.70
2009,09,28,15,20,12.60
2009,09,28,15,21,12.60
2009,09,28,15,22,12.40
2009,09,28,15,23,12.30
2009,09,28,15,24,12.20
2009,09,28,15,25,12.10
2009,09,28,15,26,12.10
2009,09,28,15,27,12.00
2009,09,28,15,28,11.90
2009,09,28,15,29,11.90
2009,09,28,15,30,11.80
2009,09,28,15,31,11.80
2009,09,28,15,32,11.80
2009,09,28,15,33,11.70
2009,09,28,15,34,11.60
2009,09,28,15,35,11.60
2009,09,28,15,36,11.60
2009,09,28,15,37,11.60
2009,09,28,15,38,11.60
2009,09,28,15,39,11.50
2009,09,28,15,40,11.40
2009,09,28,15,41,11.30
2009,09,28,15,42,11.30
2009,09,28,15,43,11.20
2009,09,28,15,44,11.20
2009,09,28,15,45,11.20
2009,09,28,15,46,11.20
2009,09,28,15,47,11.10
2009,09,28,15,48,11.10
2009,09,28,15,49,11.00
2009,09,28,15,50,10.90
2009,09,28,15,51,10.90
2009,09,28,15,52,10.80
2009,09,28,15,53,10.80
2009,09,28,15,54,10.80
2009,09,28,15,55,10.70
2009,09,28,15,56,10.70
2009,09,28,15,57,10.60
2009,09,28,15,58,10.60
2009,09,28,15,59,10.60
2009,09,28,16,00,10.50
2009,09,28,16,01,10.50
2009,09,28,16,02,10.50
2009,09,28,16,03,10.50
2009,09,28,16,04,10.50
2009,09,28,16,05,10.40
2009,09,28,16,06,10.40
2009,09,28,16,07,10.30
2009,09,28,16,08,10.30
2009,09,28,16,09,10.30
2009,09,28,16,10,10.20
2009,09,28,16,11,10.20
2009,09,28,16,12,10.20
2009,09,28,16,13,10.10
2009,09,28,16,14,10.10
2009,09,28,16,15,10.10
2009,09,28,16,16,10.10
2009,09,28,16,17,10.00
2009,09,28,16,18,10.00
2009,09,28,16,19,10.00
2009,09,28,16,20,10.00
2009,09,28,16,21,10.00
2009,09,28,16,22,10.10
2009,09,28,16,23,10.00
2009,09,28,16,24,10.00
2009,09,28,16,25,10.00
2009,09,28,16,26,10.00
2009,09,28,16,27,10.00
2009,09,28,16,28,10.00
2009,09,28,16,29,10.00
2009,09,28,16,30,10.00
2009,09,28,16,31,10.00
2009,09,28,16,32,10.10
2009,09,28,16,33,10.00
2009,09,28,16,34,10.00
2009,09,28,16,35,10.00
2009,09,28,16,36,10.00
2009,09,28,16,37,10.00
2009,09,28,16,38,10.00
2009,09,28,16,39,9.90
2009,09,28,16,40,9.90
2009,09,28,16,41,9.90
2009,09,28,16,42,9.90
2009,09,28,16,43,9.90
2009,09,28,16,44,10.00
2009,09,28,16,45,10.00
2009,09,28,16,46,10.00
2009,09,28,16,47,10.00
2009,09,28,16,48,10.00
2009,09,28,16,49,10.00
2009,09,28,16,50,10.00
2009,09,28,16,51,9.90
2009,09,28,16,52,9.90
2009,09,28,16,53,9.90
2009,09,28,16,54,9.90
2009,09,28,16,55,9.90
2009,09,28,16,56,9.90
2009,09,28,16,57,10.00
2009,09,28,16,58,9.90
2009,09,28,16,59,9.90
2009,09,28,17,00,9.90
2009,09,28,17,01,9.90
2009,09,28,17,02,9.90
2009,09,28,17,03,9.90
2009,09,28,17,04,9.90
2009,09,28,17,05,9.90
2009,09,28,17,06,9.90
2009,09,28,17,07,9.90
2009,09,28,17,08,9.90
2009,09,28,17,09,9.90
2009,09,28,17,10,9.90
2009,09,28,17,11,9.80
2009,09,28,17,12,9.80
2009,09,28,17,13,9.80
2009,09,28,17,14,9.80
2009,09,28,17,15,9.80
2009,09,28,17,16,9.80
2009,09,28,17,17,9.80
2009,09,28,17,18,9.80
2009,09,28,17,19,9.80
2009,09,28,17,20,9.80
2009,09,28,17,21,9.80
2009,09,28,17,22,9.80
2009,09,28,17,23,9.70
2009,09,28,17,24,9.70
2009,09,28,17,25,9.70
2009,09,28,17,26,9.70
2009,09,28,17,27,9.70
2009,09,28,17,28,9.70
2009,09,28,17,29,9.70
2009,09,28,17,30,9.70
2009,09,28,17,31,9.70
2009,09,28,17,32,9.70
2009,09,28,17,33,9.70
2009,09,28,17,34,9.70
2009,09,28,17,35,9.70
2009,09,28,17,36,9.70
2009,09,28,17,37,9.70
2009,09,28,17,38,9.70
2009,09,28,17,39,9.70
2009,09,28,17,40,9.70
2009,09,28,17,41,9.70
2009,09,28,17,42,9.70
2009,09,28,17,43,9.60
2009,09,28,17,44,9.60
2009,09,28,17,45,9.60
2009,09,28,17,46,9.60
2009,09,28,17,47,9.70
2009,09,28,17,48,9.70
2009,09,28,17,49,9.70
2009,09,28,17,50,9.60